sat.trackr.live / text

‹ back to catalog

TELSTAR 18V

NORAD 43611 · 2018-069A

PAYLOAD ACTIVE UNKNOWN

§ Identity

Operator
Country
CA
Launch date
2018-09-10
Launch site
AFETR
Launch vehicle
Mass (kg)
RCS (m²)

Purposes: comms

External: N2YO · Heavens-Above · Gunter

§ Orbital elements

Epoch: 2026-09-10T04:09:38.609856Z

Period
1,436.12 min
Inclination
0.0259°
Eccentricity
0.0001908
Mean motion
1.00270134 rev/d
Perigee alt
35,779.0 km
Apogee alt
35,795.1 km
Semi-major
42,165.2 km
B*
0.0000e+0
RAAN
252.4366°
Arg perigee
283.1619°
Mean anomaly
14.0409°
Rev number
2,949

§ Raw data

TELSTAR 18V1 43611U 18069A   26253.17336354 -.00000314  00000+0  00000+0 0  99962 43611   0.0259 252.4366 0001908 283.1619  14.0409  1.00270134 29499

JSON: /api/v1/satellites/43611 · /tle

For live sub-satellite position, see the globe view (requires WebGL).

§ Visibility from observer

Set your observer location to see the next 7 days of passes ≥ 10°. The values pass through the URL so the page stays shareable.

No JS? Fill the form by hand. The geolocation button needs JavaScript.